Current Version              Previous Version:    01  02  03  04  05  06  07  08  09  10  11  12  13  14  15  16  17  18  19  20  21  22  23  24  25  26  27  28  29  30  
   31  32  33  34  35  36  37  38  39  40  41  42  43  44  45  46  47  48  49  50  51  52  53  54  55  56  57  58  59  60  

[Printable]
825
ASUS44 KFWD 310103
RWRTX
NORTH TEXAS HOURLY WEATHER ROUNDUP
NATIONAL WEATHER SERVICE FORT WORTH TX
800 PM CDT THU OCT 30 2014

NOTE: "FAIR" INDICATES FEW OR NO CLOUDS BELOW 12,000 FEET WITH NO
SIGNIFICANT WEATHER AND/OR OBSTRUCTIONS TO VISIBILITY.

TXZ118-119-310200-
DALLAS/FORT WORTH METROPLEX

CITY           SKY/WX    TMP DP  RH WIND       PRES   REMARKS
DFW AIRPORT    CLOUDY    68  57  68 NE3       30.10R
DALLAS LOVE    MOCLDY    67  60  78 NE5       30.10R
FTW MEACHAM    CLOUDY    72  56  57 N10       30.10R
DAL-EXECUTIVE  MOCLDY    71  55  56 NE5       30.10R
FTW-ALLIANCE   MOCLDY    67  56  67 CALM      30.10R
FTW-NAS-JRB    CLOUDY    77  55  46 NE9       30.14R
FTW-SPINKS     MOCLDY    71  57  61 W3        30.11S
ARLINGTON      CLOUDY    74  54  49 CALM      30.10R
MESQUITE       CLOUDY    64  61  88 N3        30.10R
LANCASTER      MOCLDY    68  53  58 NE3       30.10R
$$

TXZ091>094-102>105-117-120-121-131>134-310200-
NORTH CENTRAL TEXAS

CITY           SKY/WX    TMP DP  RH WIND       PRES   REMARKS
SHRMAN/DENISON CLEAR     64  55  71 CALM      30.11R
GAINESVILLE    CLEAR     63  54  72 NW6       30.13R
BOWIE          CLEAR     66  47  51 N6        30.13R
BRIDGEPORT     MOCLDY    67  60  77 CALM      30.13R
DECATUR        CLEAR     67  57  68 CALM      30.12R
DENTON         PTCLDY    65  57  75 S3        30.10R
MCKINNEY       CLEAR     65  54  67 SW6       30.10R
GREENVILLE     CLEAR     61  52  72 CALM      30.09R
ROCKWALL       MOCLDY    64  57  77 CALM      30.09R
TERRELL        CLOUDY    67  57  70 CALM      30.10R
WAXAHACHIE     CLOUDY    71  55  58 CALM      30.10S
CLEBURNE       MOCLDY    68  64  88 CALM      30.11F
GRANBURY       PTCLDY    69  65  88 CALM      30.12R
$$

TXZ083>090-098>101-113>116-127>130-139>142-154-155-310200-
WESTERN NORTH TEXAS

CITY           SKY/WX    TMP DP  RH WIND       PRES   REMARKS
WICHITA FALLS  CLEAR     63  36  36 N10       30.15R
WF-KICKAPOO    CLEAR     67  33  28 N6        30.16R
VERNON         CLEAR     64  30  27 N6        30.18R
ABILENE        MOCLDY    75  58  55 NE12      30.13R
ABILENE-DYESS  MOCLDY    75  59  58 NE13G20   30.13R
BRECKENRIDGE   CLEAR     75  57  53 NE8       30.12R
MINERAL WELLS  CLOUDY    67  64  90 E5        30.10R
STEPHENVILLE   CLOUDY    69  60  74 NE9       30.14R
COMANCHE       LGT RAIN  66  63  89 E7        30.11R
COLEMAN        MOCLDY    73  58  61 NE7       30.11R
BRADY          CLEAR     73  59  60 E7        30.10R
$$

TXZ143>147-156>162-174-175-310200-
CENTRAL TEXAS

CITY           SKY/WX    TMP DP  RH WIND       PRES   REMARKS
WACO           MOCLDY    65  55  70 E5        30.08R
WACO-TSTC      CLEAR     64  55  72 CALM      30.10R
WACO-MCGREGOR  PTCLDY    68  48  49 SE5       30.09S
CORSICANA      PTCLDY    68  52  56 SE3       30.10R
MEXIA          CLEAR     63  55  73 CALM      30.09R
HEARNE         CLEAR     64  57  79 CALM      30.08S
CAMERON        CLEAR     67  55  65 CALM      30.07S
TEMPLE         PTCLDY    68  52  56 E5        30.07R
KILLEEN        PTCLDY    71  57  61 SE8       30.08R
KILLEEN-SKYLRK PTCLDY    72  55  56 E6        30.07R
GATESVILLE     MOCLDY    72  57  60 CALM      30.10R
HAMILTON       MOCLDY    70  62  77 MISG      30.11R
LAMPASAS       CLEAR     71  62  73 E3        30.08R
$$

TXZ095>097-106>112-122>126-135>138-148>153-164>167-310200-
EAST TEXAS

CITY           SKY/WX    TMP DP  RH WIND       PRES   REMARKS
PARIS          CLEAR     63  46  55 CALM      30.09R
SULPHUR SPRNGS CLEAR     65  50  58 SW3       30.10S
MOUNT PLEASANT CLEAR     60  51  71 CALM      30.10R
MINEOLA        CLEAR     63  54  72 CALM      30.10R
TYLER          PTCLDY    65  54  67 CALM      30.09R
LONGVIEW       CLEAR     61  50  67 CALM      30.08R
MARSHALL       CLEAR     58  52  79 CALM      30.10R
ATHENS         MOCLDY    64  54  68 CALM      30.09R
PALESTINE      CLOUDY    64  58  78 CALM      30.09S
JACKSONVILLE   CLOUDY    67  46  46 CALM      30.11R
HENDERSON      MOCLDY    58  54  85 CALM      30.09S
NACOGDOCHES    PTCLDY    57  50  77 CALM      30.09S
LUFKIN         CLEAR     61  52  72 CALM      30.09R
$$

SUPPLEMENTAL OBSERVATIONS (CENTRAL)

CITY           SKY/WX    TMP DP  RH WIND       PRES   REMARKS
$$

SUPPLEMENTAL OBSERVATIONS (WEST)

CITY           SKY/WX    TMP DP  RH WIND       PRES   REMARKS
$$

SUPPLEMENTAL OBSERVATIONS (EAST)

CITY           SKY/WX    TMP DP  RH WIND       PRES   REMARKS
$$

SUPPLEMENTAL OBSERVATIONS ARE A COLLECTION OF AUTOMATED INSTRUMENTS
THAT ARE MAINTAINED BY A VARIETY OF FEDERAL AND STATE AGENCIES.
CERTAIN ELEMENTS...SUCH AS HUMIDITY VALUES AND SUSTAINED WIND
SPEEDS...MAY BE APPROXIMATED.